Location: Asheville, NC
(35.6000°N, 82.5500°W)
Time: 00:41:22
(UTC-04:00)

DOVE 4 - Pass Details

Date: 13 March 2018
Orbit: 589 x 803 km, 97.7° (Epoch: 18 June)

Event Time Altitude Azimuth Distance (km) Brightness Sun altitude
Rises 06:53:03 0° 360° (N) 3,299 ? -11.1°
Reaches altitude 10° 06:55:39 10° 350° (N) 2,348 ? -10.6°
Maximum altitude 07:00:08 30° 291° (WNW) 1,341 ? -9.7°
Drops below altitude 10° 07:04:26 10° 230° (SW) 2,245 ? -8.8°
Sets 07:06:53 0° 220° (SW) 3,129 ? -8.3°
